Regional Weather Roundup
Issued by NWS New Orleans/Baton Rouge, LA

Home | Current Version | Previous Version | Text Only | Print | Product List | Glossary Off
Versions: 1 2 3 4 5 6 7 8 9 10 11 12 13 14 15 16 17 18 19 20 21 22 23 24 25 26 27 28 29 30 31 32 33 34 35 36 37 38 39 40 41 42 43 44 45 46 47 48 49 50

981
ASUS44 KLIX 231301
RWRLIX
NEW ORLEANS REGIONAL WEATHER ROUNDUP
NATIONAL WEATHER SERVICE NEW ORLEANS LA
800 AM CDT WED JUL 23 2014

NOTE: "FAIR" INDICATES FEW OR NO CLOUDS BELOW 12,000 FEET WITH NO
      SIGNIFICANT WEATHER AND/OR OBSTRUCTIONS TO VISIBILITY.
      SKY/WX - SKY CONDITION AND SIGNIFICANT WEATHER.
      TMP - AIR TEMPERATURE.     DP    - DEWPOINT TEMPERATURE.
      RH  - RELATIVE HUMIDITY.   PRES  - PRESSURE.
      HI  - HEAT INDEX.          WCI   - WIND CHILL INDEX.

*  THESE STATIONS ARE NOT NWS OR FAA STATIONS AND ARE NOT UNDER
   NWS QUALITY CONTROL.

LAZ038-040-048-061>063-065>067-069-231400-
SOUTHEAST LOUISIANA

CITY           SKY/WX    TMP DP  RH WIND       PRES   REMARKS
N.O. AUDUBON     N/A     79  76  91 MISG        N/A
N.O. INTL ARPT PTSUNNY   79  74  84 CALM      30.05R THUNDER
N.O. LAKEFRONT PTSUNNY   80  76  87 E8        30.06R
N.O. DOWNTOWN* PTSUNNY   79  72  78 CALM      30.06R
SLIDELL        SUNNY     74  69  85 NE3       30.05R
BATON ROUGE    SUNNY     73  69  87 NE6       30.06R
BOOTHVILLE     PTSUNNY   81  75  82 CALM      30.05R
BELLE CHASSE   PTSUNNY   78  73  84 CALM      30.05R
BOGALUSA*      CLOUDY    71  68  90 E3        30.09R FOG
GALLIANO*      NOT AVBL
NEW ROADS*       N/A     73  70  88 MISG      30.06R
GONZALES*        N/A     75  73  93 CALM      30.05R
HAMMOND*       SUNNY     73  68  83 N3        30.08R
HOUMA*         MOSUNNY   77  70  78 CALM      30.05R
PORT FOURCHON* MOSUNNY   81  73  78 CALM      30.06R

$$

MSZ070-080>082-231400-
SOUTHERN MISSISSIPPI

CITY           SKY/WX    TMP DP  RH WIND       PRES   REMARKS
MCCOMB         SUNNY     71  68  90 CALM      30.08S
GULFPORT       MOSUNNY   78  70  76 NE3       30.06R
BILOXI         MOSUNNY   75  71  89 NE3       30.06S
PASCAGOULA     SUNNY     74  72  93 CALM      30.07R
STENNIS ARPT*  MOSUNNY  N/A N/A N/A CALM      30.06R

$$

COASTAL OBSERVATIONS
LAKE AND NEARSHORE STATIONS

STATION/POSITION TIME  TEMP    WIND        PRES    WAVE
                       AIR SEA DIR/SP/G            HT/PER
                 (UTC) (F)     (DEG/KT/KT) (MB)    (FT/S)
PASCAGOULA       1200   74      10/  5/  7 1017.3
WAVELAND YACHT   1200   75      60/ 10/ 11 1016.9
GRAND ISLE       1200   81 85  330/  5/  5 1017.7
SOUTHWEST PASS   1200   82 84  160/  4/  5 1017.1
NEW CANAL        1200   79 81  180/  2/  4 1017.9
SHELL BEACH      1200   81 81  120/  3/  5 1017.2

OFFSHORE STATIONS

STATION/POSITION TIME  TEMP    WIND        PRES    WAVE
                       AIR SEA DIR/SP/G            HT/PER
                 (UTC) (F)     (DEG/KT/KT) (MB)    (FT/S)
64 S DAUPHIN ISL 1146   80 84  170/ 14/ 17 1017.2

$$




USA.gov is the U.S. government's official web portal to all federal, state and local government web resources and services.